Location: Newark
(13.8625°N, 100.5144°E)
Time: 19:02:21
(UTC+00:00)

LightSail 2 - Pass Details

Date: 17 May 2021
Orbit: 685 x 700 km, 24.0° (Epoch: 11 June)

Event Time Altitude Azimuth Distance (km) Brightness Sun altitude
Exits shadow 22:09:03 - 277° (W) 2,202 7.2 -10.2°
Reaches altitude 10° 22:09:14 10° 276° (W) 2,135 7.1 -10.2°
Maximum altitude 22:14:01 44° 205° (SSW) 947 5.5 -9.1°
Drops below altitude 10° 22:18:47 10° 133° (SE) 2,124 7.9 -8.0°
Sets 22:21:17 0° 126° (SE) 3,037 8.9 -7.5°
